Regional Weather Roundup
Issued by NWS Sioux Falls, SD

Home | Current Version | Previous Version | Graphics & Text | Print | Product List | Glossary Off
Versions: 1 2 3 4 5 6 7 8 9 10 11 12 13 14 15 16 17 18 19 20 21 22 23 24 25 26 27 28 29 30 31 32 33 34 35 36 37 38 39 40 41 42 43 44 45 46 47 48 49 50

000
ASUS43 KFSD 021110
RWRFSD

WEATHER ROUNDUP FOR SE SOUTH DAKOTA/SW MINNESOTA/NW IOWA
NATIONAL WEATHER SERVICE SIOUX FALLS SD
600 AM CDT WED SEP 02 2015

NOTE: "FAIR" INDICATES FEW OR NO CLOUDS BELOW 12,000 FEET WITH NO
SIGNIFICANT WEATHER AND OR OBSTRUCTIONS TO VISIBILITY.


SDZ038>040-050-052>070-021200-
SOUTHEAST SOUTH DAKOTA

CITY           SKY/WX    TMP DP  RH WIND       PRES   REMARKS
BROOKINGS      CLEAR     64  61  88 SE9       29.87S
CHAMBERLAIN    CLEAR     63  62  97 CALM      29.79R
HURON          CLEAR     68  66  93 SE9       29.78F
MADISON        FAIR      63  63 100 E6        29.86S FOG
MITCHELL       CLEAR     68  66  93 SE7       29.80F
SIOUX FALLS    CLEAR     68  65  90 E7        29.86R
WINNER         FAIR      69  60  73 E3        29.80F
YANKTON        CLEAR     66  64  94 E6        29.82S
$$

MNZ071-072-080-081-089-090-097-098-021200-
SOUTHWEST MINNESOTA

CITY           SKY/WX    TMP DP  RH WIND       PRES   REMARKS
FAIRMONT       CLEAR     70  63  78 S8        29.91S
JACKSON        CLEAR     70  68  94 S7        29.91F
LUVERNE        CLEAR     66  64  94 CALM      29.88S FOG
MARSHALL       CLEAR     64  59  82 SE6       29.87F
MONTEVIDEO     PTCLDY    64  63  94 S5        29.88S
PIPESTONE      CLEAR     64  64 100 SE8       29.88S FOG
REDWOOD FALLS  CLEAR     67  63  87 S9        29.86F
TRACY          CLEAR     67  65  96 S8        29.88S
WINDOM         CLEAR     68  66  94 SE3       29.90S FOG
WORTHINGTON    CLEAR     64  63  94 SE5       29.90F
$$

IAZ001>003-012>014-020>022-031-032-NEZ013-014-SDZ071-021200-
NORTHWEST IOWA

CITY           SKY/WX    TMP DP  RH WIND       PRES   REMARKS
CHEROKEE       CLEAR     70  69  96 S7        29.90S
DENISON        CLEAR     72  68  88 S16G24    29.89F
ESTHERVILLE    CLEAR     68  67  96 S10       29.91S FOG
LE MARS        CLEAR     70  68  94 S7        29.88S
ORANGE CITY    CLEAR     68  66  94 S6        29.89R
SHELDON        CLEAR     68  66  94 SE7       29.88S
SIOUX CITY     CLEAR     70  64  81 SE8       29.87S
SPENCER        CLEAR     70  66  87 S10       29.91S
STORM LAKE     CLEAR     70  68  94 S12       29.93S
$$

ABBREVIATIONS USED IN REMARKS
   TC - TEMPERATURE IN CELSIUS
  WCI - WIND CHILL INDEX
   HX - HEAT INDEX
  VSB - VISIBILITY



USA.gov is the U.S. government's official web portal to all federal, state and local government web resources and services.